• In Hungary
  • List of Countries
  • For 7 days
  • Water Temperature
  • Satellite Maps
  • Weather Map
  • News
  • Weather Widgets
  • user-avatar
    Login

    Hourly Weather Chubariha

    Today, 25 September, Tuesday

    Time Temperature Precipitation Wind Pressure Humidity
    00:00 +6°C° 2 mm 4 mps 731 mmHg 94%
    01:00 +7°C° 2 mm 4 mps 730 mmHg 94%
    02:00 +8°C° 0 mm 3 mps 730 mmHg 94%
    03:00 +7°C° 1.3 mm 4 mps 730 mmHg 94%
    04:00 +6°C° 1.3 mm 4 mps 730 mmHg 94%
    05:00 +6°C° 1.3 mm 5 mps 730 mmHg 93%
    06:00 +6°C° 0.6 mm 5 mps 731 mmHg 92%
    07:00 +5°C° 0.6 mm 6 mps 732 mmHg 91%
    08:00 +5°C° 0 mm 7 mps 732 mmHg 89%
    09:00 +5°C° 0.3 mm 7 mps 733 mmHg 88%
    10:00 +5°C° 0.3 mm 7 mps 734 mmHg 87%
    11:00 +5°C° 0.3 mm 7 mps 735 mmHg 86%
    12:00 +5°C° 0.5 mm 7 mps 736 mmHg 85%
    13:00 +7°C° 0.5 mm 6 mps 737 mmHg 83%
    14:00 +7°C° 0.5 mm 6 mps 738 mmHg 81%
    15:00 +7°C° 0.2 mm 6 mps 738 mmHg 80%
    16:00 +6°C° 0.2 mm 5 mps 739 mmHg 79%
    17:00 +6°C° 0.2 mm 5 mps 740 mmHg 78%
    18:00 +6°C° 0 mm 5 mps 741 mmHg 79%
    19:00 +5°C° 0 mm 5 mps 742 mmHg 80%
    20:00 +5°C° 0 mm 5 mps 742 mmHg 81%
    21:00 +3°C° 0 mm 5 mps 743 mmHg 81%
    22:00 +4°C° 0 mm 4 mps 744 mmHg 82%
    23:00 +4°C° 0 mm 4 mps 745 mmHg 83%

    Tomorrow, 26 September, Wednesday

    Time Temperature Precipitation Wind Pressure Humidity
    00:00 +3°C° 0 mm 4 mps 746 mmHg 83%
    01:00 +3°C° 0 mm 4 mps 746 mmHg 83%
    02:00 +1°C° 0 mm 4 mps 747 mmHg 84%
    03:00 +1°C° 0 mm 4 mps 747 mmHg 84%
    04:00 0°C° 0 mm 4 mps 748 mmHg 84%
    05:00 0°C° 0 mm 4 mps 748 mmHg 84%
    06:00 +1°C° 0 mm 4 mps 749 mmHg 80%
    07:00 +3°C° 0 mm 3 mps 749 mmHg 77%
    08:00 +4°C° 0 mm 3 mps 749 mmHg 74%
    09:00 +5°C° 0 mm 4 mps 749 mmHg 71%
    10:00 +7°C° 0 mm 4 mps 749 mmHg 69%
    11:00 +8°C° 0 mm 4 mps 749 mmHg 67%
    12:00 +10°C° 0 mm 4 mps 749 mmHg 65%
    13:00 +10°C° 0 mm 5 mps 748 mmHg 62%
    14:00 +10°C° 0 mm 5 mps 748 mmHg 60%
    15:00 +9°C° 0 mm 5 mps 747 mmHg 63%
    16:00 +9°C° 0 mm 5 mps 746 mmHg 65%
    17:00 +8°C° 0 mm 4 mps 745 mmHg 68%
    18:00 +7°C° 0.2 mm 5 mps 744 mmHg 70%
    19:00 +7°C° 0.2 mm 6 mps 743 mmHg 71%
    20:00 +6°C° 0.2 mm 7 mps 743 mmHg 73%
    21:00 +5°C° 1.2 mm 7 mps 741 mmHg 78%
    22:00 +5°C° 1.2 mm 8 mps 740 mmHg 82%
    23:00 +5°C° 1.2 mm 8 mps 738 mmHg 87%

    Day after tomorrow, 27 September, Thursday

    Time Temperature Precipitation Wind Pressure Humidity
    00:00 +5°C° 1.9 mm 8 mps 737 mmHg 88%
    01:00 +5°C° 1.9 mm 7 mps 736 mmHg 89%
    02:00 +4°C° 1.9 mm 7 mps 735 mmHg 90%
    03:00 +5°C° 1.5 mm 7 mps 734 mmHg 90%
    04:00 +5°C° 1.5 mm 6 mps 733 mmHg 90%
    05:00 +7°C° 1.5 mm 6 mps 733 mmHg 91%
    06:00 +7°C° 0.2 mm 6 mps 733 mmHg 87%
    07:00 +7°C° 0.2 mm 6 mps 733 mmHg 83%
    08:00 +7°C° 0.2 mm 5 mps 733 mmHg 79%
    09:00 +8°C° 0.2 mm 6 mps 734 mmHg 76%
    10:00 +8°C° 0.2 mm 6 mps 734 mmHg 72%
    11:00 +9°C° 0.2 mm 7 mps 734 mmHg 69%
    12:00 +8°C° 0.2 mm 7 mps 734 mmHg 69%
    13:00 +8°C° 0.2 mm 7 mps 735 mmHg 69%
    14:00 +8°C° 0.2 mm 7 mps 735 mmHg 68%
    15:00 +7°C° 0.1 mm 6 mps 735 mmHg 71%
    16:00 +7°C° 0.1 mm 6 mps 736 mmHg 73%
    17:00 +6°C° 0.1 mm 5 mps 736 mmHg 75%
    18:00 +6°C° 0 mm 5 mps 737 mmHg 76%
    19:00 +5°C° 0 mm 5 mps 737 mmHg 78%
    20:00 +5°C° 0 mm 4 mps 737 mmHg 79%
    21:00 +5°C° 0 mm 5 mps 738 mmHg 79%
    22:00 +3°C° 0 mm 5 mps 738 mmHg 79%
    23:00 +3°C° 0 mm 5 mps 738 mmHg 78%

    28 September, Friday

    Time Temperature Precipitation Wind Pressure Humidity
    00:00 +3°C° 0 mm 5 mps 739 mmHg 79%
    01:00 +3°C° 0 mm 5 mps 739 mmHg 80%
    02:00 +4°C° 0 mm 4 mps 739 mmHg 81%
    03:00 +4°C° 0 mm 4 mps 739 mmHg 82%
    04:00 +4°C° 0 mm 4 mps 739 mmHg 82%
    05:00 +3°C° 0 mm 4 mps 738 mmHg 83%
    06:00 +3°C° 0.6 mm 3 mps 738 mmHg 85%
    07:00 +3°C° 0.6 mm 3 mps 737 mmHg 87%
    08:00 +3°C° 0.6 mm 3 mps 736 mmHg 89%
    09:00 +4°C° 2.3 mm 4 mps 735 mmHg 90%
    10:00 +5°C° 2.3 mm 4 mps 733 mmHg 91%
    11:00 +5°C° 2.3 mm 5 mps 732 mmHg 92%
    12:00 +5°C° 1.2 mm 5 mps 732 mmHg 92%
    13:00 +6°C° 1.2 mm 4 mps 732 mmHg 91%
    14:00 +6°C° 1.2 mm 4 mps 732 mmHg 90%
    15:00 +5°C° 0.1 mm 5 mps 733 mmHg 88%
    16:00 +5°C° 0.1 mm 5 mps 734 mmHg 87%
    17:00 +3°C° 0.1 mm 5 mps 735 mmHg 86%
    18:00 +2°C° 0 mm 5 mps 736 mmHg 85%
    19:00 +1°C° 0 mm 4 mps 738 mmHg 85%
    20:00 +1°C° 0 mm 4 mps 739 mmHg 84%
    21:00 0°C° 0 mm 4 mps 740 mmHg 85%
    22:00 0°C° 0 mm 4 mps 741 mmHg 86%
    23:00 +1°C° 0 mm 3 mps 741 mmHg 88%

    29 September, Saturday

    Time Temperature Precipitation Wind Pressure Humidity
    00:00 0°C° 0 mm 3 mps 742 mmHg 89%
    01:00 0°C° 0 mm 3 mps 743 mmHg 91%
    02:00 0°C° 0 mm 3 mps 743 mmHg 92%
    03:00 -1°C° 0 mm 3 mps 744 mmHg 93%
    04:00 -1°C° 0 mm 3 mps 744 mmHg 93%
    05:00 -1°C° 0 mm 3 mps 745 mmHg 93%
    06:00 0°C° 0 mm 3 mps 746 mmHg 88%
    07:00 -1°C° 0 mm 4 mps 746 mmHg 83%
    08:00 0°C° 0 mm 4 mps 747 mmHg 77%
    09:00 +1°C° 0 mm 4 mps 747 mmHg 71%
    10:00 +3°C° 0 mm 4 mps 748 mmHg 65%
    11:00 +4°C° 0 mm 4 mps 749 mmHg 59%
    12:00 +5°C° 0 mm 4 mps 749 mmHg 57%
    13:00 +5°C° 0 mm 4 mps 749 mmHg 55%
    14:00 +5°C° 0 mm 4 mps 749 mmHg 53%
    15:00 +4°C° 0 mm 4 mps 750 mmHg 59%
    16:00 +3°C° 0 mm 3 mps 750 mmHg 65%
    17:00 +3°C° 0 mm 2 mps 750 mmHg 70%
    18:00 +2°C° 0 mm 2 mps 751 mmHg 74%
    19:00 +1°C° 0 mm 2 mps 752 mmHg 77%
    20:00 +1°C° 0 mm 2 mps 752 mmHg 81%
    21:00 -1°C° 0 mm 2 mps 752 mmHg 81%
    22:00 -1°C° 0 mm 2 mps 753 mmHg 81%
    23:00 -1°C° 0 mm 2 mps 753 mmHg 82%

    30 September, Sunday

    Time Temperature Precipitation Wind Pressure Humidity
    00:00 -2°C° 0 mm 2 mps 753 mmHg 81%
    01:00 -2°C° 0 mm 2 mps 753 mmHg 80%
    02:00 -2°C° 0 mm 2 mps 753 mmHg 80%
    03:00 -2°C° 0 mm 2 mps 753 mmHg 79%
    04:00 -2°C° 0 mm 3 mps 753 mmHg 77%
    05:00 -2°C° 0 mm 3 mps 753 mmHg 76%
    06:00 -1°C° 0 mm 3 mps 753 mmHg 71%
    07:00 0°C° 0 mm 4 mps 753 mmHg 65%
    08:00 +1°C° 0 mm 5 mps 753 mmHg 60%
    09:00 +3°C° 0 mm 5 mps 752 mmHg 59%
    10:00 +5°C° 0 mm 5 mps 752 mmHg 58%
    11:00 +7°C° 0 mm 6 mps 752 mmHg 56%
    12:00 +7°C° 0 mm 6 mps 751 mmHg 56%
    13:00 +8°C° 0 mm 6 mps 751 mmHg 56%
    14:00 +8°C° 0 mm 6 mps 750 mmHg 56%
    15:00 +8°C° 0 mm 5 mps 750 mmHg 61%
    16:00 +7°C° 0 mm 5 mps 750 mmHg 66%
    17:00 +6°C° 0 mm 4 mps 750 mmHg 70%
    18:00 +6°C° 0 mm 4 mps 750 mmHg 72%
    19:00 +5°C° 0 mm 4 mps 750 mmHg 74%
    20:00 +5°C° 0 mm 4 mps 750 mmHg 76%
    21:00 +5°C° 0 mm 4 mps 750 mmHg 77%
    22:00 +5°C° 0 mm 4 mps 750 mmHg 78%
    23:00 +5°C° 0 mm 4 mps 750 mmHg 79%
    Show more